[[[{"header":{"parameterUnit":"kt","parameterCategory":2,"dx":1,"dy":1,"la1":30.253999710083008,"la2":30.299108505249023,"lo1":-89.0895004272461,"lo2":-89.04439544677734,"nx":28,"ny":28,"refTime":"2022-09-27T15:00:00:Z","depth":0,"parameterNumber":1,"parameterNumberName":"U-component_of_WINDS"},"data":[-5.4554,-5.4747,-5.4723,-5.493,-5.4943,-5.5081,-5.5122,-5.5172,-5.5206,-5.5366,-5.5453,-5.5447,-5.547,-5.5568,-5.566,-5.5655,-5.5699,-5.5783,-5.5764,-5.5405,-5.5354,-5.5305,-5.526,-5.5792,-5.5792,-5.6141,-5.6144,-5.6147,-5.4291,-5.4307,-5.4409,-5.4493,-5.458,-5.4483,-5.454,-5.462,-5.4746,-5.4788,-5.4873,-5.5011,-5.5117,-5.5111,-5.5208,-5.5297,-5.5258,-5.5325,-5.5321,-5.5327,-5.4941,-5.4893,-5.5355,-5.5355,-5.5355,-5.5355,-5.5354,-5.5354,-5.3806,-5.3922,-5.3958,-5.4069,-5.4104,-5.416,-5.4266,-5.4256,-5.4356,-5.4456,-5.4406,-5.4547,-5.4585,-5.469,-5.4719,-5.4827,-5.4749,-5.4816,-5.4833,-5.4853,-5.4878,-5.4384,-5.4842,-5.484,-5.4839,-5.4838,-5.4837,0,-5.3445,-5.3417,-5.3514,-5.3604,-5.3683,-5.375,-5.3808,-5.3872,-5.3804,-5.3889,-5.401,-5.4075,-5.4204,-5.4315,-5.44,-5.4417,-5.4328,-5.4314,-5.4361,-5.4392,-5.4407,-5.4406,-5.3782,-5.4303,-5.4299,-5.4295,-5.4293,-5.4291,-5.2958,-5.3095,-5.3121,-5.3192,-5.3218,-5.3334,-5.3398,-5.3327,-5.3398,-5.3458,-5.3563,-5.3672,-5.3757,-5.3954,-5.3943,-5.4039,-5.3998,-5.42,-5.4012,-5.4033,-5.4007,-5.4002,-5.4016,-5.4241,-5.4247,-5.4253,-5.4257,0,-5.2687,-5.2647,-5.2851,-5.2863,-5.287,-5.3018,-5.3028,-5.314,-5.3118,-5.327,-5.3301,-5.3269,-5.3389,-5.3343,-5.3471,-5.3444,-5.3687,-5.3641,-5.3673,-5.3664,-5.3844,-5.3829,-5.4427,-5.4503,-5.3946,-5.3951,-5.3956,0,-5.2259,-5.2441,-5.2371,-5.2493,-5.2692,-5.2617,-5.2817,-5.2818,-5.285,-5.2969,-5.2858,-5.2972,-5.2896,-5.3003,-5.2963,-5.3152,-5.3175,-5.3167,-5.3156,-5.3182,-5.3184,-5.3223,-5.32,-5.3119,-5.3116,-5.3113,-5.3111,0,-5.1844,-5.2019,-5.2214,-5.2248,-5.228,-5.2373,-5.2391,-5.2426,-5.249,-5.2564,-5.2605,-5.2696,-5.2749,-5.2821,-5.2771,-5.2646,-5.2999,-5.2817,-5.2993,-5.2995,-5.3079,-5.3076,-5.361,-5.3107,-5.3106,-5.3105,-5.3104,0,-5.1494,-5.1572,-5.186,-5.1884,-5.1933,-5.2061,-5.2148,-5.2247,-5.2292,-5.2275,-5.2333,-5.2257,-5.2416,-5.2238,-5.2457,-5.2308,-5.2365,-5.2371,-5.2383,-5.2401,-5.2205,-5.252,-5.3028,-5.3083,-5.2408,-5.2402,-5.2397,0,-5.1032,-5.1312,-5.125,-5.1525,-5.1649,-5.1518,-5.1658,-5.1702,-5.1692,-5.1794,-5.1781,-5.19,-5.1758,-5.1789,-5.1902,-5.1896,-5.2088,-5.1868,-5.2021,-5.2028,-5.2019,-5.2484,-5.2575,-5.292,-5.2322,-5.233,-5.2335,0,-5.067,-5.0708,-5.0762,-5.0798,-5.0844,-5.0946,-5.1107,-5.1208,-5.128,-5.1339,-5.1475,-5.1637,-5.1537,-5.1591,-5.1538,-5.1659,-5.1956,-5.1537,-5.1537,-5.1618,-5.2279,-5.2364,-5.2422,-5.1894,-5.1903,-5.191,-5.2276,0,-5.0159,-5.0293,-5.0434,-5.0518,-5.059,-5.0759,-5.0713,-5.0793,-5.0736,-5.0722,-5.0917,-5.0942,-5.1046,-5.1098,-5.1044,-5.1334,-5.128,-5.1173,-5.1002,-5.1306,-5.1426,-5.1475,-5.0827,-5.0821,-5.0817,-5.0813,0,0,-4.973,-4.9921,-4.985,-5.0004,-5.0061,-4.9925,-5.011,-5.0149,-5.0233,-5.0275,-5.0177,-5.0414,-5.044,-5.0683,-5.0773,-5.0814,-5.0863,-5.076,-5.1161,-5.12,-5.1235,-5.1364,-5.1416,-5.0805,-5.0804,-5.0802,-5.0801,0,-4.9535,-4.9562,-4.9745,-4.9782,-4.9835,-4.9811,-4.9855,-4.9884,-4.9884,-5.0074,-4.9962,-5.0073,-5.0264,-5.0307,-5.0354,-5.0726,-5.0638,-5.0761,-5.0978,-5.1117,-5.1162,-5.1201,-5.1337,-5.1387,-5.079,-5.079,-5.0791,0,-4.9174,-4.9194,-4.9278,-4.9399,-4.9433,-4.9563,-4.937,-4.9516,-4.9612,-4.9458,-4.9651,-4.9659,-4.9712,-4.9947,-5.005,-4.9966,-5.0436,-5.0279,-5.0306,-5.0318,-5.045,-5.0504,-5.0552,-4.992,-4.9917,-4.9915,0,0,-4.9013,-4.9137,-4.9138,-4.9354,-4.9383,-4.9351,-4.9415,-4.9365,-4.9416,-4.9437,-4.9447,-4.95,-4.9609,-4.9684,-4.9785,-5.0048,-5.0055,-5.0173,-5.0214,-5.0248,-5.0279,-5.042,-5.0473,-4.9904,-4.9904,-4.9904,0,0,-4.8936,-4.8947,-4.888,-4.9124,-4.9175,-4.9193,-4.9327,-4.9246,-4.9332,-4.9308,-4.9232,-4.9243,-4.9461,-4.9475,-4.9336,-4.9724,-4.9555,-4.9587,-4.9709,-4.976,-4.98,-4.9795,-4.9146,0,0,0,0,0,-4.8715,-4.8944,-4.8884,-4.8918,-4.9072,-4.9225,-4.9245,-4.9187,-4.9068,-4.9176,-4.9171,-4.907,-4.9384,-4.926,-4.9295,-4.9452,-4.9766,-4.9791,-4.9814,-5.0032,-5.0086,-5.0131,0,0,0,0,0,0,-4.8728,-4.877,-4.8877,-4.8905,-4.8939,-4.9217,-4.9003,-4.8994,-4.9055,-4.9033,-4.9074,-4.9072,-4.9026,-4.9237,-4.927,-4.9421,-4.9135,-4.9776,-4.9796,-4.9815,-5.005,-5.0094,-5.0132,0,0,0,0,0,-4.8738,-4.8772,-4.9034,-4.8901,-4.8931,-4.8909,-4.8994,-4.8985,-4.9031,-4.9026,-4.9019,-4.8982,-4.9032,-4.9055,-4.9257,-4.9408,-4.9112,-4.9124,-4.9789,-4.9806,-4.982,-5.0072,0,0,0,0,0,0,-4.8746,-4.8764,-4.9039,-4.9046,-4.8811,-4.8892,-4.8902,-4.8977,-4.9018,-4.9015,-4.8929,-4.8911,-4.9039,-4.9055,-4.9075,-4.9406,-4.9093,-4.9106,-4.9113,-4.9802,-4.9814,-4.9826,0,0,0,0,0,0,-4.8746,-4.8771,-4.9042,-4.8931,-4.8925,-4.8877,-4.8886,-4.9049,-4.902,-4.8918,-4.8905,-4.892,-4.901,-4.9057,-4.9071,-4.9327,-4.9078,-4.909,-4.9099,-4.9104,-4.9812,-4.9822,0,0,0,0,0,0,-4.8755,-4.8777,-4.8929,-4.8925,-4.8918,-4.899,-4.9019,-4.9181,-4.8925,-4.8919,-4.89,-4.8889,-4.9015,-4.9028,-4.907,-4.9321,-4.9326,-4.9079,-4.9087,-4.9093,-4.9097,0,0,0,0,0,0,0,-4.8763,-4.8631,-4.8998,-4.8919,-4.8913,-4.9109,-4.9111,-4.9113,-4.8922,-4.8912,-4.8903,-4.8894,-4.9009,-4.9022,-4.9036,-4.9315,0,0,-4.9077,-4.9083,0,0,0,0,0,0,0,0,-4.862,-4.8628,-4.8999,-4.9,-4.9001,-4.9109,-4.9111,-4.9112,-4.8921,-4.8913,-4.8905,-4.8897,-4.9012,-4.9023,-4.9034,0,0,0,0,0,0,0,0,0,0,0,0,0,0,0,-4.8999,-4.9,0,-4.9109,-4.9111,-4.9112,-4.8919,-4.8913,-4.8906,-4.89,-4.9015,-4.9024,-4.9033,0,0,0,0,0,0,0,0,0,0,0,0,0,0,0,0,0,0,0,0,0,0,0,0,0,0,0,0,0,0,0,0,0,0,0,0,0,0,0,0,0,0,0,0,0,0,0,0,0,0,0,0,0,0,0,0,0,0,0,0,0,0,0,0,0,0,0,0,0]}],[{"header":{"parameterUnit":"kt","parameterCategory":2,"dx":1,"dy":1,"la1":30.253999710083008,"la2":30.299108505249023,"lo1":-89.0895004272461,"lo2":-89.04439544677734,"nx":28,"ny":28,"refTime":"2022-09-27T15:00:00:Z","depth":0,"parameterNumber":2,"parameterNumberName":"V-component_of_WINDS"},"data":[-17.0213,-17.0499,-17.0486,-17.0803,-17.0843,-17.1055,-17.1125,-17.1213,-17.1277,-17.1523,-17.166,-17.167,-17.1723,-17.1878,-17.2021,-17.202,-17.2081,-17.2194,-17.2173,-17.1689,-17.1621,-17.1555,-17.1488,-17.2208,-17.2209,-17.2675,-17.268,-17.2683,-16.9857,-16.9902,-17.0067,-17.0216,-17.0355,-17.0238,-17.0344,-17.0467,-17.0658,-17.0739,-17.0874,-17.1087,-17.1251,-17.1265,-17.1417,-17.1544,-17.1494,-17.1586,-17.1575,-17.1584,-17.1067,-17.0996,-17.1623,-17.1623,-17.1623,-17.1623,-17.1623,-17.1623,-16.9206,-16.9379,-16.9461,-16.9639,-16.9709,-16.9807,-16.9967,-16.9976,-17.0133,-17.0296,-17.0243,-17.0456,-17.053,-17.0703,-17.0755,-17.0917,-17.081,-17.0903,-17.0926,-17.095,-17.098,-17.0306,-17.0941,-17.094,-17.0938,-17.0936,-17.0935,0,-16.8723,-16.87,-16.8857,-16.901,-16.9138,-16.9254,-16.9356,-16.9453,-16.939,-16.9522,-16.9709,-16.9813,-17.0016,-17.0186,-17.0324,-17.0358,-17.0243,-17.0229,-17.0293,-17.0322,-17.033,-17.0327,-16.9483,-17.021,-17.0204,-17.02,-17.0196,-17.0194,-16.8062,-16.8267,-16.8344,-16.8456,-16.8509,-16.869,-16.8793,-16.8723,-16.8835,-16.8946,-16.9098,-16.927,-16.9403,-16.9701,-16.9701,-16.9851,-16.9796,-17.0075,-16.9817,-16.9837,-16.9797,-16.9786,-16.9804,-17.0127,-17.0135,-17.0142,-17.0148,0,-16.7691,-16.7666,-16.7976,-16.8031,-16.805,-16.8266,-16.8309,-16.8476,-16.8464,-16.8691,-16.8739,-16.872,-16.8903,-16.8859,-16.9057,-16.9027,-16.9371,-16.9315,-16.9345,-16.933,-16.9575,-16.9552,-17.038,-17.0483,-16.9738,-16.9745,-16.9751,0,-16.7116,-16.7386,-16.733,-16.7512,-16.7807,-16.773,-16.8022,-16.8042,-16.8106,-16.8284,-16.8149,-16.8318,-16.8234,-16.8396,-16.8352,-16.8626,-16.8663,-16.8656,-16.8641,-16.8668,-16.8669,-16.8722,-16.8686,-16.8601,-16.8597,-16.8593,-16.859,0,-16.6537,-16.6823,-16.7118,-16.7178,-16.7262,-16.7401,-16.7441,-16.7513,-16.7614,-16.7736,-16.78,-16.7948,-16.8029,-16.8143,-16.8086,-16.7913,-16.842,-16.8169,-16.8412,-16.8414,-16.8526,-16.8519,-16.9265,-16.8585,-16.8584,-16.8582,-16.8581,0,-16.6067,-16.62,-16.6632,-16.6697,-16.6775,-16.6968,-16.711,-16.7266,-16.735,-16.7336,-16.7432,-16.7335,-16.7573,-16.7327,-16.7651,-16.744,-16.7526,-16.7541,-16.7557,-16.7574,-16.73,-16.7725,-16.8441,-16.8513,-16.7591,-16.7583,-16.7575,0,-16.541,-16.5839,-16.5776,-16.6187,-16.6378,-16.6215,-16.6426,-16.6506,-16.6506,-16.6664,-16.666,-16.6841,-16.6648,-16.6698,-16.6865,-16.6867,-16.714,-16.6829,-16.705,-16.7059,-16.7032,-16.7692,-16.7809,-16.8289,-16.7469,-16.748,-16.7488,0,-16.4896,-16.5,-16.5079,-16.5143,-16.524,-16.5399,-16.5643,-16.5807,-16.5915,-16.602,-16.622,-16.6472,-16.6336,-16.642,-16.6356,-16.6532,-16.6953,-16.6362,-16.6362,-16.6468,-16.7413,-16.7523,-16.7604,-16.687,-16.6883,-16.6893,-16.7404,0,-16.4189,-16.4401,-16.4611,-16.4761,-16.4877,-16.5132,-16.509,-16.5216,-16.5144,-16.5138,-16.5431,-16.5483,-16.5646,-16.5726,-16.5657,-16.6075,-16.5997,-16.5851,-16.5606,-16.604,-16.6207,-16.6275,-16.5361,-16.5353,-16.5347,-16.5342,0,0,-16.3565,-16.3868,-16.3791,-16.4028,-16.4121,-16.3947,-16.4223,-16.4292,-16.4438,-16.4504,-16.4368,-16.4732,-16.4781,-16.514,-16.5272,-16.5339,-16.5408,-16.5258,-16.5834,-16.589,-16.594,-16.612,-16.6192,-16.5331,-16.5328,-16.5326,-16.5324,0,-16.3298,-16.336,-16.3637,-16.3707,-16.3807,-16.3788,-16.3854,-16.3921,-16.393,-16.4219,-16.4067,-16.4236,-16.4531,-16.4601,-16.4675,-16.5215,-16.5089,-16.5268,-16.5573,-16.5773,-16.5836,-16.5892,-16.6082,-16.6152,-16.5309,-16.531,-16.531,0,-16.2784,-16.2836,-16.2966,-16.3173,-16.3237,-16.3438,-16.3172,-16.3396,-16.3543,-16.3336,-16.3625,-16.3648,-16.3738,-16.4085,-16.4239,-16.4119,-16.4801,-16.4578,-16.4616,-16.4631,-16.4822,-16.4899,-16.4967,-16.407,-16.4065,-16.4062,0,0,-16.2558,-16.2755,-16.2787,-16.3113,-16.3163,-16.3139,-16.3241,-16.318,-16.3268,-16.3304,-16.3331,-16.3419,-16.3587,-16.37,-16.3857,-16.4245,-16.4255,-16.4427,-16.4486,-16.4534,-16.4575,-16.4779,-16.4854,-16.4046,-16.4046,-16.4045,0,0,-16.2448,-16.2501,-16.2414,-16.2787,-16.2878,-16.2928,-16.3127,-16.302,-16.3157,-16.3123,-16.3026,-16.3045,-16.3369,-16.3397,-16.3195,-16.3768,-16.3527,-16.3575,-16.3738,-16.3811,-16.3869,-16.3855,-16.2926,0,0,0,0,0,-16.2154,-16.2494,-16.2415,-16.2471,-16.2731,-16.2973,-16.3005,-16.2936,-16.2767,-16.2925,-16.293,-16.2789,-16.3267,-16.3086,-16.3141,-16.3367,-16.3846,-16.3881,-16.3915,-16.4217,-16.4294,-16.4359,0,0,0,0,0,0,-16.2175,-16.2245,-16.2406,-16.2472,-16.2529,-16.296,-16.2658,-16.2649,-16.2748,-16.2717,-16.2793,-16.2792,-16.2734,-16.3053,-16.3103,-16.332,-16.2909,-16.386,-16.389,-16.3917,-16.4243,-16.4306,-16.436,0,0,0,0,0,-16.2192,-16.2247,-16.2684,-16.2466,-16.2517,-16.2506,-16.2645,-16.2634,-16.271,-16.2718,-16.2712,-16.2649,-16.2743,-16.278,-16.3082,-16.3299,-16.2874,-16.2893,-16.3879,-16.3903,-16.3924,-16.4274,0,0,0,0,0,0,-16.2204,-16.2238,-16.2692,-16.2704,-16.2333,-16.248,-16.2501,-16.2623,-16.2702,-16.2701,-16.2567,-16.2542,-16.2753,-16.2779,-16.2809,-16.3295,-16.2845,-16.2864,-16.2876,-16.3897,-16.3916,-16.3933,0,0,0,0,0,0,-16.2207,-16.225,-16.2698,-16.2534,-16.2527,-16.2457,-16.2476,-16.2722,-16.2705,-16.2546,-16.2527,-16.2555,-16.2706,-16.2781,-16.2803,-16.319,-16.2822,-16.2841,-16.2854,-16.2862,-16.3913,-16.3927,0,0,0,0,0,0,-16.2224,-16.226,-16.253,-16.2526,-16.2518,-16.2652,-16.2672,-16.2941,-16.257,-16.2545,-16.2534,-16.2518,-16.2712,-16.2733,-16.2801,-16.3179,-16.3188,-16.2823,-16.2836,-16.2845,-16.2851,0,0,0,0,0,0,0,-16.2237,-16.2011,-16.2619,-16.2518,-16.2511,-16.2819,-16.2823,-16.2826,-16.2566,-16.2552,-16.2538,-16.2524,-16.2716,-16.2737,-16.2757,-16.317,0,0,-16.2821,-16.283,0,0,0,0,0,0,0,0,-16.1994,-16.2007,-16.2619,-16.2622,-16.2625,-16.282,-16.2822,-16.2825,-16.2564,-16.2552,-16.2541,-16.253,-16.2722,-16.2738,-16.2755,0,0,0,0,0,0,0,0,0,0,0,0,0,0,0,-16.262,-16.2622,0,-16.282,-16.2822,-16.2825,-16.2562,-16.2553,-16.2543,-16.2534,-16.2726,-16.274,-16.2754,0,0,0,0,0,0,0,0,0,0,0,0,0,0,0,0,0,0,0,0,0,0,0,0,0,0,0,0,0,0,0,0,0,0,0,0,0,0,0,0,0,0,0,0,0,0,0,0,0,0,0,0,0,0,0,0,0,0,0,0,0,0,0,0,0,0,0,0,0]}]]]